Location: Unspecified
(51.5147°N, 7.4673°E)
Time: 03:22:59
(UTC+01:00)

A-11 Canister half - Pass Details

Date: 23 February 2026
Orbit: 1513 x 1687 km, 47.2° (Epoch: 13 March)

Event Time Altitude Azimuth Distance (km) Brightness Sun altitude
Rises 00:02:43 0° 273° (W) 4,933 11.8 -47.6°
Reaches altitude 10° 00:05:56 10° 271° (W) 3,933 11.2 -47.7°
Enters shadow 00:07:19 15° 270° (W) 3,512 10.9 -47.7°
Maximum altitude 00:15:51 66° 193° (SSW) 1,769 - -48.0°
Drops below altitude 10° 00:25:26 10° 114° (ESE) 3,806 - -48.2°
Sets 00:28:30 0° 112° (ESE) 4,767 - -48.3°
